[[{"header":{"parameterUnit":"m.s-1","parameterCategory":1,"la1":30.2991,"la2":30.254,"lo1":-89.0895,"lo2":-89.0444,"dy":0.0017,"dx":0.0017,"nx":28,"ny":28,"refTime":"2026-03-05T03:00:00:Z","depth":0,"parameterNumber":2,"parameterNumberName":"U-component_of_WINDS"},"data":[0,0,0,0,0,0,0,0,0,0,0,0,0,0,0,0,0,0,0,0,0,0,0,0,0,0,0,0,0,0,0,0,0,0,0,0,0,0,0,0,0,0,0,0,0,0,0,0,0,0,0,0,0,0,0,0,0,0,-2.5435,-2.5436,0,-2.5528,-2.5529,-2.553,-2.5524,-2.5523,-2.5522,-2.552,-2.5619,-2.5623,-2.5626,0,0,0,0,0,0,0,0,0,0,0,0,0,-2.5256,-2.526,-2.5435,-2.5436,-2.5437,-2.5528,-2.5529,-2.553,-2.5524,-2.5523,-2.5521,-2.552,-2.5618,-2.5622,-2.5627,0,0,0,0,0,0,0,0,0,0,0,0,0,-2.534,-2.5261,-2.5435,-2.5445,-2.5447,-2.5527,-2.5529,-2.5531,-2.5525,-2.5523,-2.5521,-2.5519,-2.5616,-2.5622,-2.5627,-2.5704,0,0,-2.5645,-2.5648,0,0,0,0,0,0,0,0,-2.5335,-2.5347,-2.5442,-2.5445,-2.5447,-2.5512,-2.5502,-2.5589,-2.5525,-2.5495,-2.552,-2.5518,-2.5585,-2.5593,-2.5616,-2.5709,-2.5713,-2.5646,-2.5649,-2.5652,-2.5653,0,0,0,0,0,0,0,-2.533,-2.5343,-2.5472,-2.5444,-2.5447,-2.5447,-2.5456,-2.5519,-2.5551,-2.5498,-2.5498,-2.5509,-2.5586,-2.561,-2.5618,-2.5715,-2.5646,-2.5651,-2.5654,-2.5657,-2.5877,-2.588,0,0,0,0,0,0,-2.5321,-2.5338,-2.5469,-2.5474,-2.5385,-2.5451,-2.5462,-2.5493,-2.555,-2.5557,-2.551,-2.5508,-2.5601,-2.5611,-2.5621,-2.5715,-2.5652,-2.5657,-2.5661,-2.5875,-2.5878,-2.588,0,0,0,0,0,0,-2.5317,-2.5333,-2.5465,-2.5406,-2.5423,-2.5457,-2.5492,-2.5496,-2.552,-2.5559,-2.5565,-2.5528,-2.56,-2.5613,-2.5684,-2.5718,-2.566,-2.5665,-2.5872,-2.5876,-2.5879,-2.5904,0,0,0,0,0,0,-2.5312,-2.5331,-2.536,-2.5407,-2.5426,-2.5525,-2.5494,-2.55,-2.553,-2.5528,-2.5578,-2.5584,-2.5599,-2.5675,-2.569,-2.5725,-2.567,-2.5869,-2.5874,-2.5878,-2.59,-2.5908,-2.5914,0,0,0,0,0,-2.5306,-2.5364,-2.5361,-2.5377,-2.5462,-2.5527,-2.5538,-2.5553,-2.5532,-2.5562,-2.5588,-2.5583,-2.5713,-2.5682,-2.5699,-2.5737,-2.5867,-2.5873,-2.5878,-2.5897,-2.5906,-2.5914,0,0,0,0,0,0,-2.5321,-2.537,-2.5368,-2.5442,-2.548,-2.5526,-2.5563,-2.5562,-2.5607,-2.5604,-2.5621,-2.5633,-2.5704,-2.5728,-2.5693,-2.5815,-2.5788,-2.5796,-2.5796,-2.5806,-2.5813,-2.5805,-2.5675,0,0,0,0,0,-2.5332,-2.5379,-2.5421,-2.5483,-2.5502,-2.5529,-2.5558,-2.5566,-2.5606,-2.5623,-2.5653,-2.5694,-2.5744,-2.5776,-2.5824,-2.5904,-2.5915,-2.5939,-2.5946,-2.5951,-2.5958,-2.6003,-2.6014,-2.5898,-2.5898,-2.5898,0,0,-2.5358,-2.539,-2.5419,-2.5486,-2.5517,-2.5566,-2.5543,-2.5596,-2.5633,-2.5631,-2.5699,-2.5724,-2.577,-2.5845,-2.588,-2.5868,-2.5993,-2.5958,-2.5962,-2.5966,-2.6009,-2.602,-2.603,-2.5901,-2.5901,-2.59,0,0,-2.5428,-2.5458,-2.5513,-2.5544,-2.5589,-2.5608,-2.5621,-2.5667,-2.5682,-2.5751,-2.5751,-2.5796,-2.5882,-2.5915,-2.5943,-2.6028,-2.6026,-2.6044,-2.6081,-2.6124,-2.6133,-2.6141,-2.6171,-2.6182,-2.6051,-2.6051,-2.6051,0,-2.5454,-2.5527,-2.5541,-2.5595,-2.5625,-2.5625,-2.5681,-2.5711,-2.5771,-2.5792,-2.5777,-2.5885,-2.5916,-2.6,-2.602,-2.6043,-2.606,-2.6037,-2.613,-2.6139,-2.6146,-2.6175,-2.6187,-2.6053,-2.6053,-2.6053,-2.6052,0,-2.5556,-2.5607,-2.5646,-2.5703,-2.5737,-2.5792,-2.5816,-2.585,-2.5856,-2.5876,-2.5947,-2.5985,-2.604,-2.6061,-2.6068,-2.6146,-2.6137,-2.6126,-2.6098,-2.6159,-2.6187,-2.6198,-2.6056,-2.6055,-2.6054,-2.6054,0,0,-2.5637,-2.5702,-2.5716,-2.5742,-2.5793,-2.5833,-2.5889,-2.5943,-2.5971,-2.6014,-2.6061,-2.6134,-2.6124,-2.6156,-2.6167,-2.6205,-2.627,-2.619,-2.6191,-2.6203,-2.6359,-2.6366,-2.6379,-2.6269,-2.6272,-2.6273,-2.6355,0,-2.5713,-2.5809,-2.5824,-2.591,-2.5957,-2.5959,-2.6008,-2.6046,-2.6067,-2.6111,-2.6135,-2.6187,-2.617,-2.6189,-2.6227,-2.6254,-2.6302,-2.6249,-2.6314,-2.6316,-2.6301,-2.6393,-2.6401,-2.6476,-2.6366,-2.6368,-2.6369,0,-2.5813,-2.5856,-2.5946,-2.5992,-2.6012,-2.6055,-2.6106,-2.6149,-2.6192,-2.6205,-2.6241,-2.6248,-2.6307,-2.6278,-2.6361,-2.6324,-2.6353,-2.637,-2.6373,-2.6379,-2.6345,-2.6401,-2.65,-2.6511,-2.6386,-2.6385,-2.6384,0,-2.5862,-2.5944,-2.6008,-2.603,-2.6085,-2.6115,-2.614,-2.6181,-2.6213,-2.6258,-2.6279,-2.6332,-2.636,-2.6401,-2.6422,-2.6399,-2.6504,-2.6476,-2.6516,-2.6516,-2.6537,-2.6535,-2.6641,-2.6557,-2.6557,-2.6557,-2.6556,0,-2.5944,-2.5999,-2.6031,-2.607,-2.6132,-2.615,-2.6212,-2.6236,-2.6273,-2.6318,-2.6324,-2.6367,-2.6392,-2.6439,-2.6457,-2.6522,-2.6536,-2.6548,-2.6552,-2.6547,-2.6545,-2.6565,-2.656,-2.656,-2.6559,-2.6558,-2.6558,0,-2.6009,-2.6032,-2.6102,-2.6149,-2.6162,-2.6205,-2.6246,-2.6285,-2.6306,-2.6364,-2.6378,-2.6413,-2.6468,-2.6494,-2.6563,-2.6575,-2.6649,-2.665,-2.6634,-2.6635,-2.6673,-2.6669,-2.6795,-2.6812,-2.6717,-2.6718,-2.6719,0,-2.6059,-2.6101,-2.6152,-2.6182,-2.6207,-2.6255,-2.6288,-2.6308,-2.6342,-2.6395,-2.6428,-2.6484,-2.6529,-2.6618,-2.665,-2.6704,-2.6705,-2.6746,-2.6713,-2.6707,-2.6705,-2.6702,-2.6706,-2.6751,-2.6752,-2.6753,-2.6753,0,-2.6145,-2.6155,-2.62,-2.625,-2.6288,-2.6329,-2.6369,-2.6394,-2.6421,-2.6458,-2.6515,-2.655,-2.662,-2.6676,-2.6731,-2.6759,-2.6761,-2.6764,-2.6775,-2.677,-2.6759,-2.6765,-2.6649,-2.676,-2.6759,-2.6759,-2.6759,-2.6758,-2.6204,-2.6241,-2.6282,-2.6333,-2.6365,-2.6403,-2.6442,-2.6468,-2.6515,-2.6573,-2.6583,-2.6643,-2.6687,-2.6762,-2.6791,-2.6839,-2.683,-2.6847,-2.6852,-2.6855,-2.6857,-2.6752,-2.685,-2.685,-2.685,-2.685,-2.6849,0,-2.6289,-2.6316,-2.6363,-2.6418,-2.6458,-2.6456,-2.6501,-2.6535,-2.6587,-2.6628,-2.6672,-2.6738,-2.6792,-2.6828,-2.6884,-2.6916,-2.6918,-2.6929,-2.6927,-2.6933,-2.6863,-2.6846,-2.6926,-2.6926,-2.6926,-2.6926,-2.6926,-2.6926,-2.6338,-2.6402,-2.6417,-2.6496,-2.6524,-2.6581,-2.6607,-2.6642,-2.6674,-2.6746,-2.6791,-2.6814,-2.6854,-2.6912,-2.6962,-2.6972,-2.6992,-2.7003,-2.7012,-2.6946,-2.6938,-2.693,-2.6915,-2.7008,-2.7008,-2.7078,-2.7079,-2.708]},{"header":{"parameterUnit":"m.s-1","parameterCategory":1,"la1":30.2991,"la2":30.254,"lo1":-89.0895,"lo2":-89.0444,"dy":0.0017,"dx":0.0017,"nx":28,"ny":28,"refTime":"2026-03-05T03:00:00:Z","depth":0,"parameterNumber":3,"parameterNumberName":"V-component_of_WINDS"},"data":[0,0,0,0,0,0,0,0,0,0,0,0,0,0,0,0,0,0,0,0,0,0,0,0,0,0,0,0,0,0,0,0,0,0,0,0,0,0,0,0,0,0,0,0,0,0,0,0,0,0,0,0,0,0,0,0,0,0,0.4623,0.4624,0,0.4662,0.4663,0.4663,0.4689,0.4689,0.4689,0.4689,0.4729,0.473,0.4731,0,0,0,0,0,0,0,0,0,0,0,0,0,0.4573,0.4574,0.4623,0.4624,0.4624,0.4662,0.4663,0.4663,0.4689,0.4689,0.4689,0.4689,0.4729,0.473,0.4731,0,0,0,0,0,0,0,0,0,0,0,0,0,0.4602,0.4574,0.4623,0.4642,0.4644,0.4662,0.4663,0.4663,0.4689,0.4689,0.4689,0.469,0.4728,0.473,0.4731,0.4734,0,0,0.4735,0.4736,0,0,0,0,0,0,0,0,0.46,0.4604,0.4639,0.464,0.4643,0.4671,0.466,0.4687,0.4689,0.4672,0.4689,0.469,0.471,0.4712,0.4719,0.4736,0.4738,0.4735,0.4736,0.4737,0.4737,0,0,0,0,0,0,0,0.4598,0.4602,0.4639,0.4639,0.4642,0.4649,0.4653,0.4665,0.4689,0.4673,0.4675,0.4679,0.4711,0.4718,0.472,0.4738,0.4735,0.4736,0.4737,0.4738,0.4762,0.4762,0,0,0,0,0,0,0.4593,0.46,0.4638,0.464,0.4622,0.4649,0.4654,0.4662,0.4689,0.4693,0.4679,0.468,0.4715,0.4719,0.4722,0.4729,0.4737,0.4738,0.4739,0.4762,0.4762,0.4762,0,0,0,0,0,0,0.4592,0.4596,0.4636,0.4621,0.4626,0.465,0.4658,0.4662,0.4669,0.4693,0.4698,0.4682,0.4716,0.472,0.4731,0.473,0.4738,0.474,0.4763,0.4762,0.4762,0.4741,0,0,0,0,0,0,0.459,0.4595,0.4596,0.462,0.4627,0.4644,0.4658,0.4663,0.4672,0.4674,0.4697,0.4701,0.4716,0.4729,0.4733,0.4732,0.4741,0.4763,0.4762,0.4762,0.4742,0.474,0.4739,0,0,0,0,0,0.4588,0.4588,0.4596,0.4601,0.4629,0.4644,0.4648,0.4666,0.4671,0.4673,0.4689,0.47,0.473,0.473,0.4734,0.4734,0.4763,0.4763,0.4762,0.4743,0.4741,0.4739,0,0,0,0,0,0,0.4563,0.4592,0.4601,0.4609,0.4624,0.4649,0.4651,0.4662,0.4676,0.4678,0.4699,0.4704,0.4714,0.4725,0.4725,0.474,0.4748,0.4748,0.4732,0.473,0.4728,0.4725,0.4742,0,0,0,0,0,0.4558,0.4568,0.4593,0.4598,0.4605,0.4627,0.4634,0.4647,0.4663,0.467,0.4686,0.4702,0.4715,0.4723,0.4737,0.4744,0.4751,0.4747,0.4745,0.4743,0.4744,0.475,0.4749,0.4761,0.4761,0.4761,0,0,0.4549,0.4566,0.4571,0.4593,0.4607,0.4617,0.4632,0.4642,0.465,0.4671,0.4684,0.4696,0.4716,0.4726,0.4731,0.4736,0.4742,0.4743,0.4742,0.4743,0.475,0.4749,0.4748,0.4761,0.4761,0.4761,0,0,0.4537,0.455,0.4556,0.457,0.459,0.4605,0.4606,0.463,0.4639,0.4652,0.4669,0.4679,0.4701,0.4715,0.4724,0.472,0.4732,0.4724,0.4715,0.4722,0.4721,0.472,0.472,0.4719,0.4724,0.4724,0.4724,0,0.4522,0.4539,0.4558,0.4568,0.4578,0.4598,0.4605,0.4617,0.4641,0.4648,0.4653,0.4682,0.4696,0.4711,0.471,0.4717,0.472,0.4721,0.4719,0.4719,0.4719,0.4719,0.4718,0.4723,0.4723,0.4723,0.4724,0,0.4521,0.4532,0.4534,0.4557,0.4568,0.4576,0.4598,0.4606,0.4618,0.4633,0.4647,0.4665,0.4683,0.4688,0.4699,0.4704,0.4707,0.4715,0.4724,0.4716,0.4717,0.4717,0.4722,0.4722,0.4722,0.4723,0,0,0.4492,0.4527,0.4528,0.454,0.4564,0.4574,0.4584,0.4602,0.461,0.4626,0.4636,0.4655,0.4663,0.4675,0.4688,0.4694,0.4691,0.4702,0.4703,0.47,0.47,0.4694,0.4693,0.4699,0.4699,0.47,0.4699,0,0.4485,0.4503,0.4522,0.4535,0.4546,0.4567,0.4576,0.4593,0.4607,0.462,0.4636,0.4649,0.4659,0.4666,0.4673,0.469,0.4692,0.469,0.4709,0.471,0.4704,0.4693,0.4686,0.4684,0.4699,0.4699,0.4699,0,0.4478,0.4494,0.4507,0.4533,0.4539,0.4546,0.4566,0.4577,0.4597,0.4608,0.4621,0.4636,0.4649,0.4657,0.4675,0.4674,0.4683,0.4693,0.4694,0.4696,0.4704,0.4696,0.4684,0.4684,0.4699,0.4699,0.4699,0,0.4457,0.4482,0.4494,0.4503,0.4533,0.4538,0.4551,0.4571,0.4582,0.4599,0.4607,0.4625,0.4635,0.4649,0.4669,0.4673,0.4687,0.4695,0.4696,0.4696,0.4698,0.4697,0.4688,0.4703,0.4703,0.4703,0.4703,0,0.4447,0.4454,0.4485,0.4492,0.4502,0.4525,0.4534,0.4549,0.4567,0.4579,0.4598,0.4608,0.4634,0.4648,0.4663,0.4678,0.4682,0.4691,0.4695,0.469,0.4688,0.4696,0.4697,0.4703,0.4703,0.4703,0.4703,0,0.4425,0.4445,0.446,0.4488,0.4495,0.4501,0.4526,0.4534,0.4551,0.4565,0.4569,0.4595,0.4613,0.4634,0.4658,0.4669,0.4682,0.4688,0.4675,0.4677,0.4678,0.4677,0.4672,0.4673,0.4687,0.4687,0.4687,0,0.4417,0.4423,0.4452,0.4461,0.4474,0.4488,0.4499,0.4522,0.4533,0.4558,0.4564,0.4583,0.4599,0.4627,0.4648,0.4667,0.4674,0.4671,0.4677,0.4672,0.4675,0.4674,0.4676,0.4669,0.4669,0.4669,0.4669,0,0.4401,0.4411,0.4426,0.4446,0.4459,0.4475,0.4493,0.4499,0.4526,0.4538,0.4556,0.4569,0.4595,0.4614,0.4636,0.465,0.4664,0.4667,0.4668,0.4662,0.4655,0.466,0.4671,0.4667,0.4667,0.4667,0.4667,0.4667,0.4386,0.4394,0.4416,0.4433,0.4449,0.4465,0.4475,0.4493,0.4509,0.4531,0.4544,0.4562,0.4585,0.4616,0.463,0.4646,0.465,0.4652,0.4653,0.4653,0.4652,0.4653,0.465,0.465,0.465,0.465,0.465,0,0.4372,0.4388,0.4403,0.4427,0.4441,0.4454,0.4474,0.4485,0.4501,0.452,0.4537,0.4559,0.4578,0.4602,0.4623,0.4631,0.4638,0.4636,0.4635,0.4639,0.4645,0.4642,0.4629,0.4629,0.463,0.463,0.463,0.463,0.4366,0.438,0.4394,0.4416,0.4432,0.445,0.4461,0.4477,0.4493,0.4517,0.4533,0.4548,0.457,0.4593,0.4612,0.4619,0.4626,0.4622,0.463,0.4636,0.4638,0.464,0.4637,0.4623,0.4623,0.4622,0.4622,0.4622]}]]